User: anonymous   Login
Location: Ravencliff
(37.6982°N, 81.4812°W)
Time: 19:56:05
(UTC+00:00)
Language:

ACS3 Solar Sail - Orbit

View from above orbital plane
View from above orbital plane
View from above satellite
View from above satellite

Ground track
Ground track

The orbit is defined by the following mean orbital elements,

1 59588U          26132.36933322 +.00000000 +00000-0 +13853-2 0 00005
2 59588  97.1739  59.1773 0035900 344.6924  15.3152 13.92302296    08
Epoch (UTC): 12 May 2026 08:51:50
Eccentricity: 0.0035900
inclination: 97.1739°
perigee height: 894 km
apogee height: 947 km
right ascension of ascending node: 59.1773°
argument of perigee: 344.6924°
revolutions per day: 13.92302296
mean anomaly at epoch: 15.3152°

The dashed part of the orbit path shows where the satellite is in the earth's shadow,  

DLR